Grand Island, NE

4:22 AM CDT on March 23, 2017 (GMT -0500)
Central Nebraska Regional

Weather History for KGRI - May, 2012

Change the Weather History Date:

Monday, May 7, 2012

  Actual Average Record
Temperature  
Mean Temperature 57 °F 58 °F  
Max Temperature 69 °F 70 °F 97 °F (1934)
Min Temperature 45 °F 46 °F 29 °F (1947)
Degree Days  
Heating Degree Days 8 8  
Month to date heating degree days 12 61  
Since 1 July heating degree days 4988 6063  
Cooling Degree Days 0 1  
Month to date cooling degree days 45 7  
Year to date cooling degree days 90 18  
Growing Degree Days 10 (Base 50)    
Moisture  
Dew Point 36 °F    
Average Humidity 50    
Maximum Humidity 77    
Minimum Humidity 22    
Precipitation  
Precipitation 0.00 in 0.13 in 1.63 in (1930)
Month to date precipitation 0.03 0.87  
Year to date precipitation 3.48 6.41  
Snow  
Snow 0.00 in 0.00 in T in (1938)
Month to date snowfall 0.0 0.1  
Since 1 July snowfall 20.1 29.1  
Snow Depth 0.00 in    
Sea Level Pressure  
Sea Level Pressure 30.14 in    
Wind  
Wind Speed 12 mph (NNW)    
Max Wind Speed 25 mph    
Max Gust Speed 31 mph    
Visibility 10 miles    
Events      
T = Trace of Precipitation, MM = Missing Value Source: NWS Daily Summary

Daily Weather History Graph

Daily Weather History Graph

Search for Another Location

Airport or City:

Trip Planner

Search our weather history database for the weather conditions in past years. The results will help you decide how hot, cold, wet, or windy it might be!

Date:

Astronomy

May. 07, 2012 Rise Set
Actual Time 6:23 AM CDT 8:36 PM CDT
Civil Twilight 5:52 AM CDT 9:07 PM CDT
Nautical Twilight 5:15 AM CDT 9:44 PM CDT
Astronomical Twilight 4:34 AM CDT 10:26 PM CDT
Moon 10:51 PM CDT (5/7) 7:29 AM CDT (5/7)
Length of Visible Light 15h 14m
Length of Day
14h 13m
Waning Gibbous, 96% of the Moon is Illuminated
May 7
Waning Gibbous
May 12
Last Quarter
May 20
New
May 28
First Quarter
Jun 4
Full

Hourly Weather History & Observations

Time (CDT) Temp. Dew Point Humidity Pressure Visibility Wind Dir Wind Speed Gust Speed Precip Events Conditions
12:53 AM 52.0 °F 44.1 °F 74% 30.13 in 10.0 mi North 6.9 mph - N/A   Scattered Clouds
1:53 AM 53.1 °F 44.1 °F 71% 30.14 in 10.0 mi NNW 9.2 mph - N/A   Scattered Clouds
2:53 AM 53.1 °F 44.1 °F 71% 30.12 in 10.0 mi NNW 10.4 mph - N/A   Clear
3:53 AM 52.0 °F 44.1 °F 74% 30.13 in 10.0 mi NNW 6.9 mph - N/A   Clear
4:53 AM 53.1 °F 42.1 °F 66% 30.14 in 10.0 mi NNW 13.8 mph - N/A   Partly Cloudy
5:53 AM 52.0 °F 39.9 °F 63% 30.16 in 10.0 mi North 13.8 mph - N/A   Mostly Cloudy
6:53 AM 52.0 °F 39.0 °F 61% 30.18 in 10.0 mi North 12.7 mph - N/A   Mostly Cloudy
7:53 AM 53.1 °F 39.0 °F 59% 30.19 in 10.0 mi North 10.4 mph - N/A   Partly Cloudy
8:53 AM 57.0 °F 36.0 °F 45% 30.18 in 10.0 mi North 15.0 mph 21.9 mph N/A   Clear
9:53 AM 61.0 °F 34.0 °F 36% 30.17 in 10.0 mi NNW 23.0 mph 26.5 mph N/A   Partly Cloudy
10:53 AM 64.0 °F 32.0 °F 30% 30.17 in 10.0 mi North 21.9 mph 28.8 mph N/A   Clear
11:53 AM 66.0 °F 32.0 °F 28% 30.18 in 10.0 mi NNW 17.3 mph 26.5 mph N/A   Partly Cloudy
12:53 PM 66.0 °F 32.0 °F 28% 30.19 in 10.0 mi NW 19.6 mph 24.2 mph N/A   Scattered Clouds
1:53 PM 66.0 °F 32.0 °F 28% 30.19 in 10.0 mi NNW 15.0 mph 23.0 mph N/A   Clear
2:53 PM 64.0 °F 32.0 °F 30% 30.17 in 10.0 mi WNW 19.6 mph 24.2 mph N/A   Mostly Cloudy
3:53 PM 64.0 °F 32.0 °F 30% 30.15 in 10.0 mi WNW 12.7 mph - N/A   Partly Cloudy
4:53 PM 64.0 °F 33.1 °F 31% 30.12 in 10.0 mi WNW 9.2 mph - N/A   Clear
5:53 PM 68.0 °F 34.0 °F 28% 30.10 in 10.0 mi NW 9.2 mph - N/A   Clear
6:53 PM 68.0 °F 28.0 °F 22% 30.08 in 10.0 mi NW 15.0 mph - N/A   Clear
7:53 PM 64.0 °F 30.0 °F 28% 30.07 in 10.0 mi NNW 8.1 mph - N/A   Clear
8:53 PM 57.0 °F 32.0 °F 39% 30.08 in 10.0 mi NW 4.6 mph - N/A   Clear
9:53 PM 53.1 °F 34.0 °F 48% 30.09 in 10.0 mi North 3.5 mph - N/A   Clear
10:53 PM 50.0 °F 36.0 °F 59% 30.10 in 10.0 mi Calm Calm - N/A   Clear
11:53 PM 46.9 °F 37.0 °F 68% 30.10 in 10.0 mi WSW 3.5 mph - N/A   Clear